Lorain / Elyria, OH

11:03 AM EDT on March 23, 2017 (GMT -0400)
Lorain County Regional

Weather History for KLPR - October, 2011

Change the Weather History Date:

Wednesday, October 12, 2011

  Actual Average (KCLE) Record (KCLE)
Temperature  
Mean Temperature 58 °F -  
Max Temperature 63 °F 62 °F 85 °F (1893)
Min Temperature 54 °F 44 °F 26 °F (1876)
Degree Days  
Heating Degree Days 6    
Growing Degree Days 8 (Base 50)    
Moisture  
Dew Point 56 °F    
Average Humidity 88    
Maximum Humidity 94    
Minimum Humidity 72    
Precipitation  
Precipitation 0.35 in - - ()
Sea Level Pressure  
Sea Level Pressure 29.88 in    
Wind  
Wind Speed 4 mph (SE)    
Max Wind Speed 10 mph    
Max Gust Speed 50 mph    
Visibility 6 miles    
Events Rain    
Averages and records for this station are not official NWS values.
T = Trace of Precipitation, MM = Missing Value Source: NWS Daily Summary

Daily Weather History Graph

Daily Weather History Graph

Search for Another Location

Airport or City:

Trip Planner

Search our weather history database for the weather conditions in past years. The results will help you decide how hot, cold, wet, or windy it might be!

Date:

Astronomy

Oct. 12, 2011 Rise Set
Actual Time 7:36 AM EDT 6:52 PM EDT
Civil Twilight 7:09 AM EDT 7:20 PM EDT
Nautical Twilight 6:37 AM EDT 7:52 PM EDT
Astronomical Twilight 6:05 AM EDT 8:24 PM EDT
Moon 6:53 PM EDT (10/12) 8:11 AM EDT (10/12)
Length of Visible Light 12h 11m
Length of Day
11h 16m
Full, 100% of the Moon is Illuminated
Oct 12
Full
Oct 19
Last Quarter
Oct 26
New
Nov 2
First Quarter
Nov 10
Full

Hourly Weather History & Observations

Time (EDT) Temp. Dew Point Humidity Pressure Visibility Wind Dir Wind Speed Gust Speed Precip Events Conditions
12:53 AM 57.0 °F 52.0 °F 83% 30.00 in 10.0 mi Calm Calm - N/A   Clear
1:53 AM 54.0 °F 51.1 °F 90% 29.99 in 10.0 mi Calm Calm - N/A   Clear
2:53 AM 57.9 °F 53.1 °F 84% 29.98 in 9.0 mi SSE 6.9 mph - N/A   Mostly Cloudy
3:53 AM 61.0 °F 54.0 °F 78% 29.97 in 10.0 mi SSE 9.2 mph - N/A   Partly Cloudy
4:53 AM 63.0 °F 55.0 °F 75% 29.97 in 10.0 mi South 10.4 mph - N/A   Mostly Cloudy
5:53 AM 63.0 °F 54.0 °F 72% 29.98 in 10.0 mi SSE 9.2 mph - N/A   Overcast
6:53 AM 61.0 °F 55.0 °F 81% 29.98 in 7.0 mi SSE 8.1 mph - 0.00 in   Overcast
7:53 AM 60.1 °F 55.9 °F 86% 29.99 in 5.0 mi SE 3.5 mph - 0.04 in Rain Light Rain
8:53 AM 59.0 °F 55.9 °F 90% 29.99 in 5.0 mi East 3.5 mph - 0.06 in Rain Rain
9:12 AM 59.0 °F 57.2 °F 94% 29.98 in 2.5 mi Calm Calm - 0.03 in Rain Rain
9:50 AM 59.0 °F 55.4 °F 88% 29.97 in 2.5 mi ENE 3.5 mph - 0.06 in Rain Light Rain
9:53 AM 59.0 °F 55.9 °F 90% 29.97 in 2.5 mi ENE 3.5 mph - 0.07 in Rain Light Rain
10:03 AM 59.0 °F 55.4 °F 88% 29.97 in 3.0 mi ENE 3.5 mph - 0.01 in Rain Rain
10:19 AM 59.0 °F 57.2 °F 94% 29.96 in 2.5 mi NE 3.5 mph - 0.04 in Rain Rain
10:41 AM 59.0 °F 57.2 °F 94% 29.96 in 2.5 mi NE 4.6 mph - 0.09 in Rain Light Rain
10:53 AM 59.0 °F 57.0 °F 93% 29.95 in 2.5 mi ENE 5.8 mph - 0.09 in Rain Light Rain
11:10 AM 60.8 °F 57.2 °F 88% 29.94 in 2.5 mi ENE 4.6 mph - 0.02 in Rain Light Rain
11:31 AM 60.8 °F 57.2 °F 88% 29.93 in 3.0 mi ENE 8.1 mph - 0.03 in Rain Light Rain
12:01 PM 59.0 °F 55.4 °F 88% 29.92 in 6.0 mi East 9.2 mph - 0.01 in Rain Light Rain
12:53 PM 59.0 °F 55.9 °F 90% 29.91 in 5.0 mi ESE 5.8 mph - 0.05 in Rain Light Rain
1:35 PM 59.0 °F 55.4 °F 88% 29.88 in 10.0 mi East 4.6 mph 49.5 mph 0.02 in Rain Light Rain
2:53 PM 59.0 °F 55.9 °F 90% 29.84 in 7.0 mi East 3.5 mph - 0.02 in Rain Light Rain
3:27 PM 59.0 °F 55.4 °F 88% 29.83 in 8.0 mi ESE 3.5 mph - 0.02 in Rain Light Rain
3:49 PM 59.0 °F 55.4 °F 88% 29.83 in 5.0 mi Calm Calm - 0.02 in Rain Light Rain
3:53 PM 59.0 °F 55.9 °F 90% 29.82 in 5.0 mi ESE 4.6 mph - 0.02 in Rain Light Rain
4:07 PM 59.0 °F 55.4 °F 88% 29.82 in 8.0 mi Calm Calm - 0.00 in Rain Light Rain
4:45 PM 59.0 °F 55.4 °F 88% 29.81 in 7.0 mi SE 3.5 mph - 0.00 in   Overcast
5:01 PM 60.8 °F 57.2 °F 88% 29.80 in 7.0 mi Calm Calm - N/A   Overcast
5:34 PM 60.8 °F 57.2 °F 88% 29.80 in 9.0 mi South 3.5 mph - N/A   Overcast
5:51 PM 60.8 °F 57.2 °F 88% 29.80 in 8.0 mi Calm Calm - N/A   Overcast
5:53 PM 60.1 °F 57.0 °F 90% 29.80 in 8.0 mi SSE 4.6 mph - N/A   Overcast
6:29 PM 60.8 °F 57.2 °F 88% 29.80 in 7.0 mi SSW 3.5 mph - N/A   Overcast
6:53 PM 60.1 °F 57.0 °F 90% 29.79 in 7.0 mi South 3.5 mph - N/A   Overcast
7:19 PM 60.8 °F 57.2 °F 88% 29.79 in 7.0 mi South 4.6 mph - N/A   Overcast
7:53 PM 59.0 °F 57.0 °F 93% 29.79 in 6.0 mi Calm Calm - N/A   Overcast
8:53 PM 59.0 °F 57.0 °F 93% 29.78 in 4.0 mi Calm Calm - N/A   Overcast
10:53 PM 59.0 °F 57.0 °F 93% 29.78 in 5.0 mi SW 4.6 mph - N/A   Overcast
11:19 PM 59.0 °F 57.2 °F 94% 29.78 in 5.0 mi WSW 3.5 mph - N/A   Overcast
11:49 PM 59.0 °F 57.2 °F 94% 29.77 in 5.0 mi SSW 3.5 mph - N/A   Overcast
11:53 PM 59.0 °F 57.0 °F 93% 29.77 in 5.0 mi SSW 3.5 mph - N/A   Overcast